Hourly Weather Dzierzaczka

Today, 15 May, Saturday

Time Temperature Precipitation Wind Pressure Humidity
00:00 +11°C° 0 mm 4 mps 749 mmHg 91%
01:00 +11°C° 0 mm 4 mps 749 mmHg 90%
02:00 +10°C° 0 mm 4 mps 750 mmHg 90%
03:00 +10°C° 0 mm 4 mps 750 mmHg 89%
04:00 +10°C° 0 mm 4 mps 750 mmHg 88%
05:00 +10°C° 0 mm 4 mps 750 mmHg 87%
06:00 +10°C° 0 mm 4 mps 750 mmHg 86%
07:00 +10°C° 0 mm 4 mps 751 mmHg 85%
08:00 +12°C° 0 mm 5 mps 751 mmHg 79%
09:00 +13°C° 0 mm 5 mps 751 mmHg 73%
10:00 +14°C° 0 mm 5 mps 751 mmHg 67%
11:00 +15°C° 0 mm 5 mps 751 mmHg 62%
12:00 +17°C° 0 mm 4 mps 751 mmHg 57%
13:00 +19°C° 0 mm 4 mps 751 mmHg 52%
14:00 +19°C° 0 mm 3 mps 751 mmHg 53%
15:00 +19°C° 0 mm 3 mps 751 mmHg 54%
16:00 +19°C° 0 mm 2 mps 750 mmHg 55%
17:00 +18°C° 0 mm 2 mps 750 mmHg 62%
18:00 +16°C° 0 mm 2 mps 750 mmHg 69%
19:00 +15°C° 0 mm 2 mps 750 mmHg 76%
20:00 +14°C° 0.2 mm 2 mps 750 mmHg 79%
21:00 +13°C° 0.2 mm 2 mps 750 mmHg 82%
22:00 +12°C° 0.2 mm 3 mps 750 mmHg 85%
23:00 +12°C° 0.4 mm 2 mps 750 mmHg 87%

Tomorrow, 16 May, Sunday

Time Temperature Precipitation Wind Pressure Humidity
00:00 +12°C° 0.4 mm 2 mps 750 mmHg 90%
01:00 +12°C° 0.4 mm 2 mps 750 mmHg 93%
02:00 +12°C° 0.4 mm 1 mps 750 mmHg 94%
03:00 +12°C° 0.4 mm 1 mps 749 mmHg 95%
04:00 +12°C° 0.4 mm 1 mps 749 mmHg 97%
05:00 +12°C° 0.3 mm 2 mps 749 mmHg 94%
06:00 +13°C° 0.3 mm 2 mps 750 mmHg 92%
07:00 +12°C° 0.3 mm 3 mps 750 mmHg 89%
08:00 +14°C° 0.1 mm 3 mps 750 mmHg 83%
09:00 +16°C° 0.1 mm 2 mps 750 mmHg 76%
10:00 +17°C° 0.1 mm 2 mps 749 mmHg 69%
11:00 +17°C° 0.3 mm 3 mps 749 mmHg 68%
12:00 +17°C° 0.3 mm 3 mps 749 mmHg 67%
13:00 +18°C° 0.3 mm 3 mps 749 mmHg 66%
14:00 +17°C° 0.3 mm 3 mps 749 mmHg 68%
15:00 +17°C° 0.3 mm 3 mps 749 mmHg 70%
16:00 +16°C° 0.3 mm 2 mps 748 mmHg 72%
17:00 +15°C° 0.4 mm 2 mps 748 mmHg 76%
18:00 +14°C° 0.4 mm 2 mps 748 mmHg 81%
19:00 +13°C° 0.4 mm 1 mps 748 mmHg 86%
20:00 +13°C° 0 mm 1 mps 748 mmHg 87%
21:00 +12°C° 0 mm 2 mps 749 mmHg 88%
22:00 +10°C° 0 mm 2 mps 749 mmHg 89%
23:00 +10°C° 0 mm 2 mps 749 mmHg 90%

Day after tomorrow, 17 May, Monday

Time Temperature Precipitation Wind Pressure Humidity
00:00 +9°C° 0 mm 2 mps 749 mmHg 92%
01:00 +8°C° 0 mm 2 mps 749 mmHg 93%
02:00 +8°C° 0 mm 2 mps 749 mmHg 93%
03:00 +8°C° 0 mm 2 mps 749 mmHg 93%
04:00 +8°C° 0 mm 2 mps 749 mmHg 93%
05:00 +9°C° 0 mm 2 mps 749 mmHg 89%
06:00 +11°C° 0 mm 3 mps 749 mmHg 86%
07:00 +12°C° 0 mm 3 mps 749 mmHg 82%
08:00 +13°C° 0.3 mm 3 mps 749 mmHg 81%
09:00 +14°C° 0.3 mm 4 mps 749 mmHg 79%
10:00 +14°C° 0.3 mm 5 mps 749 mmHg 78%
11:00 +15°C° 0.4 mm 4 mps 749 mmHg 76%
12:00 +15°C° 0.4 mm 4 mps 749 mmHg 75%
13:00 +15°C° 0.4 mm 4 mps 749 mmHg 73%
14:00 +16°C° 0.5 mm 3 mps 749 mmHg 74%
15:00 +16°C° 0.5 mm 3 mps 748 mmHg 75%
16:00 +16°C° 0.5 mm 3 mps 748 mmHg 76%
17:00 +14°C° 0.6 mm 3 mps 748 mmHg 80%
18:00 +14°C° 0.6 mm 2 mps 748 mmHg 83%
19:00 +13°C° 0.6 mm 2 mps 748 mmHg 86%
20:00 +12°C° 0.1 mm 2 mps 748 mmHg 89%
21:00 +11°C° 0.1 mm 3 mps 749 mmHg 92%
22:00 +10°C° 0.1 mm 3 mps 749 mmHg 95%
23:00 +10°C° 0 mm 3 mps 749 mmHg 95%

18 May, Tuesday

Time Temperature Precipitation Wind Pressure Humidity
00:00 +8°C° 0 mm 4 mps 749 mmHg 95%
01:00 +8°C° 0 mm 4 mps 749 mmHg 95%
02:00 +8°C° 0 mm 4 mps 749 mmHg 96%
03:00 +7°C° 0 mm 4 mps 749 mmHg 96%
04:00 +7°C° 0 mm 4 mps 749 mmHg 97%
05:00 +8°C° 0 mm 4 mps 749 mmHg 95%
06:00 +8°C° 0 mm 4 mps 749 mmHg 94%
07:00 +9°C° 0 mm 5 mps 749 mmHg 92%
08:00 +10°C° 0.1 mm 5 mps 750 mmHg 87%
09:00 +12°C° 0.1 mm 5 mps 750 mmHg 83%
10:00 +13°C° 0.1 mm 5 mps 750 mmHg 78%
11:00 +13°C° 0.2 mm 5 mps 750 mmHg 75%
12:00 +14°C° 0.2 mm 5 mps 750 mmHg 72%
13:00 +15°C° 0.2 mm 6 mps 750 mmHg 70%
14:00 +14°C° 0.3 mm 5 mps 750 mmHg 71%
15:00 +14°C° 0.3 mm 5 mps 750 mmHg 73%
16:00 +14°C° 0.3 mm 5 mps 750 mmHg 75%
17:00 +13°C° 0.2 mm 4 mps 751 mmHg 79%
18:00 +12°C° 0.2 mm 3 mps 751 mmHg 83%
19:00 +12°C° 0.2 mm 3 mps 751 mmHg 86%
20:00 +11°C° 0 mm 3 mps 751 mmHg 89%
21:00 +10°C° 0 mm 3 mps 752 mmHg 92%
22:00 +9°C° 0 mm 3 mps 752 mmHg 94%
23:00 +8°C° 0 mm 3 mps 752 mmHg 95%

19 May, Wednesday

Time Temperature Precipitation Wind Pressure Humidity
00:00 +8°C° 0 mm 3 mps 752 mmHg 95%
01:00 +8°C° 0 mm 2 mps 752 mmHg 95%
02:00 +7°C° 0 mm 3 mps 752 mmHg 96%
03:00 +7°C° 0 mm 3 mps 752 mmHg 96%
04:00 +7°C° 0 mm 3 mps 753 mmHg 97%
05:00 +8°C° 0 mm 3 mps 753 mmHg 95%
06:00 +9°C° 0 mm 3 mps 753 mmHg 93%
07:00 +10°C° 0 mm 3 mps 754 mmHg 91%
08:00 +10°C° 0.2 mm 4 mps 754 mmHg 89%
09:00 +11°C° 0.2 mm 4 mps 754 mmHg 88%
10:00 +11°C° 0.2 mm 4 mps 754 mmHg 86%
11:00 +12°C° 0.2 mm 4 mps 754 mmHg 79%
12:00 +13°C° 0.2 mm 4 mps 754 mmHg 72%
13:00 +14°C° 0.2 mm 5 mps 754 mmHg 65%
14:00 +14°C° 0.2 mm 5 mps 754 mmHg 66%
15:00 +14°C° 0.2 mm 5 mps 754 mmHg 67%
16:00 +14°C° 0.2 mm 5 mps 754 mmHg 67%
17:00 +13°C° 0.3 mm 4 mps 754 mmHg 73%
18:00 +12°C° 0.3 mm 3 mps 754 mmHg 78%
19:00 +10°C° 0.3 mm 2 mps 755 mmHg 84%
20:00 +9°C° 0 mm 2 mps 755 mmHg 86%
21:00 +8°C° 0 mm 2 mps 755 mmHg 89%
22:00 +7°C° 0 mm 2 mps 755 mmHg 91%
23:00 +7°C° 0 mm 2 mps 755 mmHg 92%

20 May, Thursday

Time Temperature Precipitation Wind Pressure Humidity
00:00 +7°C° 0 mm 2 mps 755 mmHg 93%
01:00 +6°C° 0 mm 2 mps 755 mmHg 93%
02:00 +5°C° 0 mm 3 mps 755 mmHg 94%
03:00 +5°C° 0 mm 3 mps 756 mmHg 94%
04:00 +5°C° 0 mm 3 mps 756 mmHg 95%
05:00 +7°C° 0 mm 3 mps 756 mmHg 93%
06:00 +7°C° 0 mm 4 mps 756 mmHg 90%
07:00 +9°C° 0 mm 5 mps 756 mmHg 88%
08:00 +9°C° 0.1 mm 5 mps 757 mmHg 82%
09:00 +10°C° 0.1 mm 6 mps 757 mmHg 76%
10:00 +11°C° 0.1 mm 6 mps 757 mmHg 70%
11:00 +11°C° 0.1 mm 6 mps 757 mmHg 67%
12:00 +13°C° 0.1 mm 6 mps 757 mmHg 64%
13:00 +12°C° 0.1 mm 7 mps 757 mmHg 62%
14:00 +13°C° 0 mm 6 mps 757 mmHg 61%
15:00 +11°C° 0 mm 6 mps 757 mmHg 61%
16:00 +11°C° 0 mm 6 mps 757 mmHg 61%
17:00 +10°C° 0 mm 5 mps 757 mmHg 64%
18:00 +9°C° 0 mm 5 mps 757 mmHg 67%
19:00 +8°C° 0 mm 4 mps 758 mmHg 69%
20:00 +6°C° 0 mm 4 mps 758 mmHg 73%
21:00 +5°C° 0 mm 3 mps 758 mmHg 76%
22:00 +4°C° 0 mm 3 mps 758 mmHg 80%
23:00 +4°C° 0 mm 3 mps 757 mmHg 78%
Show more

We Need Your Consent

Meteoprog and our Service Providers may store and access personal data such as cookies, device identifiers or other similar technologies on your device and process such data to personalise content and ads, as well as provide social media features and to analyse the traffic.

  • Store and/or access information on your device

    Cookies, device identifiers or other information can be stored or accessed on your device for the purposes indicated above.

  • Personalised ads and content, ad and content measurement, audience insights, and products development

    Ads and content can be personalised based on a profile. More data can be added to better personalise ads and content. Ad and content performance can be measured. Insights about the audience who saw the ads and content can be derived. Such data can be used to develop or improve user’s experience, systems and software.

By clicking ‘I Agree’ you will allow the use of indicated cookies, device identifiers, web beacons or other similar technologies. Your settings can be changed in the browser on your device.

For certain purposes, legitimate interests may be relied on, rather than consent. You can read more about this in our Privacy and Cookie Policy.